Regional Weather Roundup
Issued by NWS

Home | Current Version | Previous Version | Text Only | Print | Product List | Glossary Off
Versions: 1 2 3 4 5 6 7 8 9 10 11 12 13 14 15 16 17 18 19 20 21 22 23 24 25 26 27 28

000
ASUS45 KBOI 181210
RWRID

IDAHO REGIONAL WEATHER ROUNDUP
NATIONAL WEATHER SERVICE BOISE ID
600 AM MDT FRI AUG 18 2017

NOTE: "FAIR" INDICATES FEW OR NO CLOUDS BELOW 12000 FEET
WITH NO SIGNIFICANT WEATHER AND/OR OBSTRUCTIONS TO VISIBILITY

IDZ012-014-181300-
SOUTHWEST IDAHO


CITY           SKY/WX    TMP DP  RH WIND       PRES   REMARKS
BOISE          CLEAR     60  39  45 SE5       30.07R
CALDWELL       CLEAR     56  49  77 CALM      30.06R
MOUNTAIN HOME  CLEAR     57  36  44 NW7       30.06R
$$

IDZ016-017-181300-
SOUTHCENTRAL IDAHO


CITY           SKY/WX    TMP DP  RH WIND       PRES   REMARKS
BURLEY         CLEAR     53  41  63 SE3       30.12R
JEROME         CLEAR     56  39  53 SE3       30.12R
TWIN FALLS     CLEAR     62  37  39 S12       30.12R
$$

IDZ019>023-181300-
SOUTHEAST IDAHO


CITY           SKY/WX    TMP DP  RH WIND       PRES   REMARKS
IDAHO FALLS    CLEAR     52  42  69 S3        30.17R
POCATELLO      CLEAR     50  36  58 E5        30.16S
REXBURG        CLEAR     47  41  80 NE5       30.18R
$$

IDZ006-010-011-018-031-032-181300-
CENTRAL IDAHO MOUNTAINS


CITY           SKY/WX    TMP DP  RH WIND       PRES   REMARKS
MCCALL         CLEAR     46  37  71 CALM      30.18S
HAILEY         CLEAR     54  39  58 NW8       30.20R
STANLEY          N/A     36  32  85 S3        30.31R
SALMON         CLEAR     47  38  71 CALM      30.18R
CHALLIS        CLEAR     51  39  63 CALM      30.20R
$$

IDZ002-004-006-007-026-181300-
NORTHERN IDAHO


CITY           SKY/WX    TMP DP  RH WIND       PRES   REMARKS
LEWISTON       CLEAR     58  40  51 SE3       30.04S
LOWELL           N/A     53  47  79 CALM      30.12R
COEUR D`ALENE  CLEAR     59  50  72 S7        30.06S
MULLAN PASS    CLEAR     54  34  46 VRB3      30.21F
$$




USA.gov is the U.S. government's official web portal to all federal, state and local government web resources and services.